Location: Peebles
(55.6412°N, 3.1714°W)
Time: 05:37:28
(UTC+01:00)

NOAA 16 DEB - Pass Details

Date: 03 July 2022
Orbit: 836 x 886 km, 98.9° (Epoch: 10 August)

Event Time Altitude Azimuth Distance (km) Brightness Sun altitude
Exits shadow 23:21:12 - 180° (S) 2,804 ? -7.7°
Reaches altitude 10° 23:22:08 10° 183° (S) 2,448 ? -7.7°
Maximum altitude 23:27:25 52° 259° (W) 1,033 ? -8.1°
Drops below altitude 10° 23:32:45 10° 336° (NNW) 2,469 ? -8.4°
Sets 23:35:12 0° 342° (NNW) 3,412 ? -8.5°
